New Orleans Lakefront, LA

9:29 AM CDT on September 22, 2017 (GMT -0500)
Lakefront

Weather History for KNEW - May, 2013

Change the Weather History Date:

Tuesday, May 14, 2013

  Actual Average Record
Temperature  
Mean Temperature 71 °F 76 °F  
Max Temperature 82 °F 85 °F 91 °F (1991)
Min Temperature 59 °F 68 °F 48 °F (1960)
Degree Days  
Heating Degree Days 0 0  
Month to date heating degree days 16 0  
Since 1 July heating degree days 1146 1279  
Cooling Degree Days 6 11  
Month to date cooling degree days 61 136  
Year to date cooling degree days 265 393  
Growing Degree Days 22 (Base 50)    
Moisture  
Dew Point 58 °F    
Average Humidity 59    
Maximum Humidity 84    
Minimum Humidity 33    
Precipitation  
Precipitation 0.00 in 0.13 in 0.93 in (2008)
Month to date precipitation 5.12 1.97  
Year to date precipitation 31.62 21.58  
Snow  
Snow 0.00 in - - ()
Month to date snowfall 0.0  
Since 1 July snowfall 0.0  
Snow Depth 0.00 in    
Sea Level Pressure  
Sea Level Pressure 30.22 in    
Wind  
Wind Speed 5 mph (WSW)    
Max Wind Speed 13 mph    
Max Gust Speed 16 mph    
Visibility 10 miles    
Events      
T = Trace of Precipitation, MM = Missing Value Source: NWS Daily Summary

Daily Weather History Graph

Daily Weather History Graph

Search for Another Location

Airport or City:

Trip Planner

Search our weather history database for the weather conditions in past years. The results will help you decide how hot, cold, wet, or windy it might be!

Date:

Astronomy

May. 14, 2013 Rise Set
Actual Time 6:07 AM CDT 7:46 PM CDT
Civil Twilight 5:40 AM CDT 8:12 PM CDT
Nautical Twilight 5:09 AM CDT 8:43 PM CDT
Astronomical Twilight 4:36 AM CDT 9:16 PM CDT
Moon 9:46 AM CDT (5/14) 11:36 PM CDT (5/14)
Length of Visible Light 14h 31m
Length of Day
13h 39m
Waxing Crescent, 19% of the Moon is Illuminated
May 14
Waxing Crescent
May 17
First Quarter
May 24
Full
May 31
Last Quarter
Jun 8
New

Hourly Weather History & Observations

Time (CDT) Temp. Heat Index Dew Point Humidity Pressure Visibility Wind Dir Wind Speed Gust Speed Precip Events Conditions
12:53 AM 66.0 °F - 54.0 °F 65% 30.20 in 10.0 mi SSW 5.8 mph - N/A   Clear
1:53 AM 66.9 °F - 57.0 °F 70% 30.21 in 10.0 mi WSW 8.1 mph - N/A   Clear
2:53 AM 66.9 °F - 54.0 °F 63% 30.21 in 10.0 mi WSW 6.9 mph - N/A   Clear
3:53 AM 66.0 °F - 55.0 °F 68% 30.20 in 10.0 mi Calm Calm - N/A   Clear
4:53 AM 64.0 °F - 55.9 °F 75% 30.21 in 10.0 mi SW 4.6 mph - N/A   Clear
5:53 AM 66.0 °F - 55.9 °F 70% 30.22 in 10.0 mi WSW 4.6 mph - N/A   Clear
6:53 AM 68.0 °F - 57.0 °F 68% 30.24 in 10.0 mi WNW 5.8 mph - N/A   Clear
7:53 AM 70.0 °F - 57.9 °F 65% 30.26 in 10.0 mi West 3.5 mph - N/A   Clear
8:53 AM 70.0 °F - 57.9 °F 65% 30.27 in 10.0 mi West 3.5 mph - N/A   Clear
9:53 AM 73.0 °F - 55.9 °F 55% 30.28 in 10.0 mi WNW 4.6 mph - N/A   Clear
10:10 AM 73.4 °F - 55.4 °F 53% 30.30 in - NW 4.6 mph - N/A   Partly Cloudy
10:53 AM 75.0 °F - - N/A% 30.28 in - North 4.6 mph - N/A   Unknown
11:53 AM 75.9 °F - 60.1 °F 58% 30.27 in 10.0 mi NNE 5.8 mph - N/A   Clear
12:53 PM 79.0 °F - 62.1 °F 56% 30.25 in 10.0 mi North - - N/A   Clear
1:53 PM 79.0 °F - 61.0 °F 54% 30.22 in 10.0 mi NNE 8.1 mph - N/A   Clear
2:53 PM 80.1 °F 81.1 °F 61.0 °F 52% 30.20 in 10.0 mi NNE 8.1 mph - N/A   Clear
3:53 PM 81.0 °F 81.7 °F 61.0 °F 50% 30.19 in 10.0 mi NNE 8.1 mph - N/A   Clear
4:53 PM 81.0 °F 81.6 °F 60.1 °F 49% 30.17 in 10.0 mi NNE 5.8 mph - N/A   Clear
5:53 PM 81.0 °F 80.7 °F 55.0 °F 41% 30.16 in 10.0 mi South 6.9 mph - N/A   Clear
6:53 PM 78.1 °F - 53.1 °F 42% 30.16 in 10.0 mi SSE 12.7 mph - N/A   Clear
7:53 PM 75.0 °F - 57.0 °F 53% 30.17 in 10.0 mi SSE 9.2 mph - N/A   Clear
8:53 PM 73.0 °F - 57.9 °F 59% 30.17 in 10.0 mi SSE 10.4 mph - N/A   Clear
9:53 PM 71.1 °F - 61.0 °F 70% 30.19 in 10.0 mi South 10.4 mph - N/A   Clear
10:53 PM 71.1 °F - 60.1 °F 68% 30.18 in 10.0 mi South 9.2 mph - N/A   Clear
11:53 PM 69.1 °F - 60.1 °F 73% 30.18 in 10.0 mi South 9.2 mph - N/A   Clear